Regional Weather Roundup
Issued by NWS Charleston, SC

Current Version | Previous Version | Graphics & Text | Print | Product List | Glossary On
Versions: 1 2 3 4 5 6 7 8 9 10 11 12 13 14 15 16 17 18 19 20 21 22 23 24 25 26 27 28 29 30 31 32 33 34 35 36 37 38 39 40 41 42 43 44 45 46 47 48 49 50
000 ASUS42 KCHS 220010 RWRCHS REGIONAL WEATHER ROUNDUP NATIONAL WEATHER SERVICE CHARLESTON SC 700 PM EST SUN DEC 21 2014 NOTE: "FAIR" INDICATES FEW OR NO CLOUDS BELOW 12,000 FEET WITH NO SIGNIFICANT WEATHER AND/OR OBSTRUCTIONS TO VISIBILITY. NOT ALL STATIONS ARE QUALITY CONTROLLED BY THE NATIONAL WEATHER SERVICE. USE DATA WITH CAUTION...ESPECIALLY DEWPOINT OBSERVATIONS. SCZ027-030-031-034>040-042>050-220100- ...SOUTHEAST SOUTH CAROLINA... CITY SKY/WX TMP DP RH WIND PRES REMARKS N CHARLESTON CLOUDY 48 43 82 NE12 30.15F 6HR MIN TEMP: 47; 6HR MAX TEMP: 51; 6HR PCP: 0.01; WATERFRONT PRK NOT AVBL MOUNT PLEASANT CLOUDY 48 43 81 NE6 30.15F PINOPOLIS N/A 48 45 87 E7 30.09R MONCKS CORNER CLOUDY 48 43 81 E6 30.16S SUMMERVILLE CLOUDY 46 45 93 CALM 30.16F BEAUFORT MCAS CLOUDY 48 45 89 N9 30.13S 6HR MIN TEMP: 47; 6HR MAX TEMP: 49; 6HR PCP: 0.03; BEAUFORT ARPT CLOUDY 46 46 100 NE13 30.12F HILTON HEAD IS CLOUDY 48 46 93 N10 30.12F WALTERBORO CLOUDY 46 N/A N/A NE8 30.16S ALLENDALE CLOUDY 50 45 81 CALM 30.14S ...SOUTHERN MIDLANDS AND PEE DEE... CITY SKY/WX TMP DP RH WIND PRES REMARKS GEORGETOWN NOT AVBL KINGSTREE NOT AVBL ORANGEBURG LGT RAIN 51 41 68 NE5 30.16R 6HR MIN TEMP: 51; 6HR MAX TEMP: 52; 6HR PCP: TRACE; BARNWELL N/A 50 46 87 NE6 30.16R AIKEN CLOUDY 46 46 100 NE7 30.18S MANNING NOT AVBL COLUMBIA LGT RAIN 51 42 71 E6 30.17R 6HR MIN TEMP: 51; 6HR MAX TEMP: 56; 6HR PCP: 0.01; SUMTER CLOUDY 51 40 67 E8 30.16S 6HR MIN TEMP: 51; 6HR MAX TEMP: 54; FLORENCE CLOUDY 50 39 66 NE9 30.19R 6HR MIN TEMP: 50; 6HR MAX TEMP: 55; MYRTLE BEACH CLOUDY 48 43 81 NE9 30.21R N MYRTLE BEACH LGT RAIN 47 42 83 NE8 30.20R 6HR MIN TEMP: 47; 6HR MAX TEMP: 52; 6HR PCP: 0.01; $$ GAZ063-065-086>088-099>101-113>116-118-119-134>141-150-220100- ...SOUTHEAST GEORGIA... CITY SKY/WX TMP DP RH WIND PRES REMARKS SAVANNAH ARPT LGT RAIN 47 44 90 NE7 30.11F FOG 6HR MIN TEMP: 47; 6HR MAX TEMP: 49; 6HR PCP: 0.03; HUNTER AAF HVY RAIN 48 47 97 NE8 30.09S FOG 6HR MIN TEMP: 48; 6HR MAX TEMP: 50; 6HR PCP: 0.04; FORT STEWART LGT RAIN 48 46 94 N6 30.10R 6HR MIN TEMP: 48; 6HR MAX TEMP: 50; 6HR PCP: 0.15; STATESBORO DRIZZLE 46 46 100 NE5 30.13S SYLVANIA CLOUDY 46 46 100 E7 30.14F FOG CLAXTON RAIN 46 46 100 NE7 30.12S ...CSRA...CENTRAL AND FAR SOUTHEAST GEORGIA... CITY SKY/WX TMP DP RH WIND PRES REMARKS THOMSON CLOUDY 52 49 88 E5 30.19R AUGUSTA-BUSH RAIN 49 46 90 CALM 30.16R FOG 6HR MIN TEMP: 49; 6HR MAX TEMP: 57; 6HR PCP: 0.05; AUGUSTA-DANIEL LGT RAIN 51 44 77 NE7 30.16R SWAINSBORO LGT RAIN 50 50 100 E6 30.13S VIDALIA CLOUDY 46 46 100 NE6 30.12R EASTMAN DRIZZLE 48 48 100 E6 30.13S HAZLEHURST DRIZZLE 49 49 100 E8 30.09S ALMA CLOUDY 50 48 93 NE7 30.10R 6HR MIN TEMP: 50; 6HR MAX TEMP: 52; 6HR PCP: 0.05; WAYCROSS LGT RAIN 54 54 98 E3 30.10R JESUP DRIZZLE 52 52 100 E7 30.11S BAXLEY DRIZZLE 50 50 100 NE5 30.10S BRUNSWICK CLOUDY 54 52 94 NE6 30.10S SAINT SIMONS LGT RAIN 55 53 93 NE13 30.08S FOG 6HR MIN TEMP: 53; 6HR MAX TEMP: 55; 6HR PCP: 0.17; $$ SCZ027-028-034-036>038-045-046-048>050-GAZ119-141-220100- ...LAKE AND SUPPLEMENTAL COASTAL OBSERVATIONS... STATION/POSITION TIME TEMP WIND PRES WAVE SWELL AIR SEA DIR/SP/G HT/PER HT/PER/DIR (UTC) (F) (DEG/KT/KT) (MB) (FT/S) (FT/S/D) UPR LAKE MARION NOT AVBL WINYAH BAY 2300 48 40/ 7 1021.0S LAKE MURRAY 2300 52 90/ 7/ 8 1021.0R ACE BASIN NERRS 2300 48 30/ 2 1020.0S FORT PULASKI 0000 50 56 30/ 15/ 18 1019.4F SAPELO ISLAND 2300 52 40/ 13 1018.0S $$ ANZ835-935-AMZ111-154-330-350-352-354-370-450-454-472-220100- ...C-MAN AND BUOY OBSERVATIONS... STATION/POSITION TIME TEMP WIND PRES WAVE SWELL AIR SEA DIR/SP/G HT/PER HT/PER/DIR (UTC) (F) (DEG/KT/KT) (MB) (FT/S) (FT/S/D) BUOY 41004 0000 65 69 40/ 17/ 21 1018.7S 7/ 7 BUOY 41008 0000 57 59 50/ 21/ 25 1017.4F 6/ 6 FOLLY BEACH CMAN 2300 50 30/ 18/ 20 1021.0F CAPERS NEARSHORE 2300 51 50/ 21/ 23 N/A FRIPP NEARSHORE NOT AVBL STATION/POSITION TIME TEMP WIND PRES WAVE SWELL AIR SEA DIR/SP/G HT/PER HT/PER/DIR (UTC) (F) (DEG/KT/KT) (MB) (FT/S) (FT/S/D) 5E ST. MARYS GA 0000 61 N/A 5/ 5 FRYING PAN BUOY 0000 58 71 50/ 21/ 27 1020.8F 7/ 7 2/ 50/10 BUOY 41025 0000 55 1023.4R 4/ 5 CAPE LOOKOUT NC 2300 47 20/ 16/ 20 1023.7R BUOY 41002 NOT AVBL BUOY 41010 0000 75 77 190/ 10/ 12 1018.2F 3/ 7 3/ 7 ST AUGUSTINE FL 0000 62 350/ 5/ 5 1017.9R $$

USA.gov is the U.S. government's official web portal to all federal, state and local government web resources and services.